Location: LewisvilleTX
(33.0462°N, 96.9942°W)
Time: 08:14:51
(UTC+00:00)

Envisat - Pass Details

Date: 01 October 2020
Orbit: 764 x 766 km, 98.1° (Epoch: 21 October)

Event Time Altitude Azimuth Distance (km) Brightness Sun altitude
Rises 11:29:56 0° 29° (NNE) 3,233 6.7 -11.9°
Reaches altitude 10° 11:32:44 10° 45° (NE) 2,302 6.2 -11.3°
Maximum altitude 11:36:38 22° 95° (E) 1,614 5.8 -10.5°
Drops below altitude 10° 11:40:32 10° 146° (SE) 2,291 5.9 -9.6°
Sets 11:43:18 0° 161° (SSE) 3,213 6.5 -9.1°
